• In Denmark
  • List of Countries
  • For 7 days
  • Water Temperature
  • Satellite Maps
  • Weather Map
  • Weather Widgets
  • user-avatar
    Login

    Hourly Weather Sydney

    Today, 21 July, Friday

    Time Temperature Precipitation Wind Pressure Humidity
    00:00 +5°C° 0 mm 6 mps 762 mmHg 68%
    01:00 +5°C° 0 mm 6 mps 762 mmHg 71%
    02:00 +4°C° 0 mm 6 mps 762 mmHg 72%
    03:00 +4°C° 0 mm 6 mps 762 mmHg 73%
    04:00 +4°C° 0 mm 6 mps 763 mmHg 73%
    05:00 +4°C° 0 mm 6 mps 763 mmHg 72%
    06:00 +4°C° 0 mm 6 mps 763 mmHg 70%
    07:00 +3°C° 0 mm 6 mps 764 mmHg 68%
    08:00 +7°C° 0.1 mm 6 mps 764 mmHg 62%
    09:00 +9°C° 0.1 mm 7 mps 764 mmHg 56%
    10:00 +11°C° 0.1 mm 7 mps 765 mmHg 51%
    11:00 +12°C° 0.1 mm 7 mps 764 mmHg 48%
    12:00 +15°C° 0.1 mm 6 mps 764 mmHg 46%
    13:00 +16°C° 0.1 mm 6 mps 764 mmHg 44%
    14:00 +16°C° 0 mm 6 mps 764 mmHg 45%
    15:00 +16°C° 0 mm 6 mps 764 mmHg 45%
    16:00 +16°C° 0 mm 5 mps 764 mmHg 45%
    17:00 +14°C° 0 mm 5 mps 765 mmHg 52%
    18:00 +12°C° 0 mm 5 mps 765 mmHg 59%
    19:00 +10°C° 0 mm 4 mps 766 mmHg 66%
    20:00 +8°C° 0 mm 4 mps 766 mmHg 67%
    21:00 +8°C° 0 mm 4 mps 766 mmHg 69%
    22:00 +7°C° 0 mm 4 mps 767 mmHg 70%
    23:00 +7°C° 0 mm 4 mps 767 mmHg 70%

    Tomorrow, 22 July, Saturday

    Time Temperature Precipitation Wind Pressure Humidity
    00:00 +6°C° 0 mm 4 mps 767 mmHg 70%
    01:00 +6°C° 0 mm 4 mps 767 mmHg 70%
    02:00 +5°C° 0 mm 4 mps 766 mmHg 70%
    03:00 +5°C° 0 mm 3 mps 766 mmHg 70%
    04:00 +5°C° 0 mm 3 mps 766 mmHg 70%
    05:00 +4°C° 0 mm 3 mps 766 mmHg 70%
    06:00 +4°C° 0 mm 3 mps 766 mmHg 70%
    07:00 +4°C° 0 mm 3 mps 767 mmHg 71%
    08:00 +8°C° 0 mm 3 mps 767 mmHg 61%
    09:00 +11°C° 0 mm 3 mps 767 mmHg 52%
    10:00 +13°C° 0 mm 3 mps 767 mmHg 42%
    11:00 +16°C° 0 mm 3 mps 766 mmHg 37%
    12:00 +18°C° 0 mm 3 mps 765 mmHg 32%
    13:00 +20°C° 0 mm 3 mps 764 mmHg 27%
    14:00 +20°C° 0 mm 3 mps 764 mmHg 28%
    15:00 +19°C° 0 mm 2 mps 764 mmHg 29%
    16:00 +19°C° 0 mm 2 mps 763 mmHg 31%
    17:00 +17°C° 0 mm 3 mps 764 mmHg 35%
    18:00 +14°C° 0 mm 3 mps 764 mmHg 40%
    19:00 +11°C° 0 mm 4 mps 764 mmHg 45%
    20:00 +10°C° 0 mm 4 mps 764 mmHg 47%
    21:00 +10°C° 0 mm 4 mps 764 mmHg 49%
    22:00 +8°C° 0 mm 4 mps 765 mmHg 51%
    23:00 +7°C° 0 mm 4 mps 764 mmHg 52%

    Day after tomorrow, 23 July, Sunday

    Time Temperature Precipitation Wind Pressure Humidity
    00:00 +8°C° 0 mm 3 mps 764 mmHg 54%
    01:00 +7°C° 0 mm 3 mps 764 mmHg 55%
    02:00 +7°C° 0 mm 3 mps 764 mmHg 55%
    03:00 +7°C° 0 mm 3 mps 763 mmHg 54%
    04:00 +7°C° 0 mm 3 mps 763 mmHg 54%
    05:00 +7°C° 0 mm 3 mps 763 mmHg 53%
    06:00 +7°C° 0 mm 3 mps 764 mmHg 51%
    07:00 +7°C° 0 mm 3 mps 764 mmHg 50%
    08:00 +10°C° 0 mm 3 mps 764 mmHg 43%
    09:00 +13°C° 0 mm 4 mps 764 mmHg 37%
    10:00 +17°C° 0 mm 4 mps 763 mmHg 30%
    11:00 +19°C° 0 mm 4 mps 763 mmHg 28%
    12:00 +21°C° 0 mm 4 mps 762 mmHg 26%
    13:00 +23°C° 0 mm 4 mps 761 mmHg 23%
    14:00 +23°C° 0 mm 4 mps 761 mmHg 26%
    15:00 +22°C° 0 mm 3 mps 761 mmHg 28%
    16:00 +22°C° 0 mm 3 mps 760 mmHg 31%
    17:00 +20°C° 0 mm 4 mps 761 mmHg 34%
    18:00 +18°C° 0 mm 4 mps 761 mmHg 38%
    19:00 +15°C° 0 mm 4 mps 762 mmHg 42%
    20:00 +14°C° 0 mm 5 mps 762 mmHg 43%
    21:00 +13°C° 0 mm 5 mps 762 mmHg 44%
    22:00 +13°C° 0 mm 5 mps 762 mmHg 45%
    23:00 +12°C° 0 mm 5 mps 762 mmHg 46%

    24 July, Monday

    Time Temperature Precipitation Wind Pressure Humidity
    00:00 +12°C° 0 mm 5 mps 762 mmHg 47%
    01:00 +10°C° 0 mm 5 mps 762 mmHg 48%
    02:00 +10°C° 0 mm 5 mps 762 mmHg 49%
    03:00 +10°C° 0 mm 5 mps 762 mmHg 51%
    04:00 +9°C° 0 mm 5 mps 762 mmHg 52%
    05:00 +9°C° 0 mm 5 mps 762 mmHg 55%
    06:00 +9°C° 0 mm 5 mps 763 mmHg 58%
    07:00 +9°C° 0 mm 5 mps 764 mmHg 61%
    08:00 +12°C° 0 mm 5 mps 764 mmHg 56%
    09:00 +14°C° 0 mm 5 mps 764 mmHg 50%
    10:00 +17°C° 0 mm 5 mps 764 mmHg 45%
    11:00 +19°C° 0 mm 5 mps 764 mmHg 40%
    12:00 +21°C° 0 mm 4 mps 763 mmHg 35%
    13:00 +22°C° 0 mm 4 mps 763 mmHg 31%
    14:00 +22°C° 0 mm 4 mps 763 mmHg 32%
    15:00 +21°C° 0 mm 4 mps 763 mmHg 34%
    16:00 +21°C° 0 mm 3 mps 763 mmHg 36%
    17:00 +19°C° 0 mm 4 mps 763 mmHg 43%
    18:00 +17°C° 0 mm 4 mps 764 mmHg 49%
    19:00 +14°C° 0 mm 4 mps 764 mmHg 56%
    20:00 +13°C° 0 mm 4 mps 764 mmHg 61%
    21:00 +12°C° 0 mm 4 mps 765 mmHg 66%
    22:00 +11°C° 0 mm 4 mps 765 mmHg 70%
    23:00 +11°C° 0 mm 4 mps 765 mmHg 73%

    25 July, Tuesday

    Time Temperature Precipitation Wind Pressure Humidity
    00:00 +10°C° 0 mm 4 mps 765 mmHg 76%
    01:00 +10°C° 0 mm 3 mps 764 mmHg 78%
    02:00 +9°C° 0 mm 3 mps 764 mmHg 80%
    03:00 +9°C° 0 mm 3 mps 764 mmHg 81%
    04:00 +9°C° 0 mm 3 mps 764 mmHg 82%
    05:00 +9°C° 0 mm 3 mps 764 mmHg 82%
    06:00 +8°C° 0 mm 3 mps 764 mmHg 82%
    07:00 +8°C° 0 mm 3 mps 765 mmHg 82%
    08:00 +11°C° 0 mm 3 mps 764 mmHg 70%
    09:00 +14°C° 0 mm 3 mps 764 mmHg 59%
    10:00 +17°C° 0 mm 4 mps 764 mmHg 47%
    11:00 +19°C° 0 mm 4 mps 763 mmHg 42%
    12:00 +21°C° 0 mm 4 mps 762 mmHg 36%
    13:00 +23°C° 0 mm 4 mps 761 mmHg 31%
    14:00 +23°C° 0 mm 4 mps 761 mmHg 32%
    15:00 +22°C° 0 mm 3 mps 760 mmHg 34%
    16:00 +22°C° 0 mm 3 mps 760 mmHg 35%
    17:00 +20°C° 0 mm 4 mps 760 mmHg 38%
    18:00 +19°C° 0 mm 4 mps 760 mmHg 41%
    19:00 +17°C° 0 mm 4 mps 760 mmHg 45%
    20:00 +15°C° 0 mm 4 mps 760 mmHg 46%
    21:00 +14°C° 0 mm 4 mps 760 mmHg 47%
    22:00 +13°C° 0 mm 4 mps 760 mmHg 48%
    23:00 +13°C° 0 mm 4 mps 760 mmHg 49%

    26 July, Wednesday

    Time Temperature Precipitation Wind Pressure Humidity
    00:00 +13°C° 0 mm 4 mps 760 mmHg 50%
    01:00 +12°C° 0 mm 4 mps 760 mmHg 50%
    02:00 +12°C° 0 mm 4 mps 760 mmHg 52%
    03:00 +12°C° 0 mm 4 mps 760 mmHg 54%
    04:00 +10°C° 0 mm 5 mps 760 mmHg 56%
    05:00 +10°C° 0 mm 5 mps 761 mmHg 57%
    06:00 +10°C° 0 mm 5 mps 761 mmHg 58%
    07:00 +10°C° 0 mm 5 mps 762 mmHg 59%
    08:00 +13°C° 0 mm 6 mps 762 mmHg 51%
    09:00 +15°C° 0 mm 6 mps 763 mmHg 42%
    10:00 +17°C° 0 mm 6 mps 763 mmHg 34%
    11:00 +19°C° 0 mm 6 mps 763 mmHg 32%
    12:00 +19°C° 0 mm 6 mps 762 mmHg 30%
    13:00 +20°C° 0 mm 6 mps 762 mmHg 27%
    14:00 +20°C° 0 mm 6 mps 762 mmHg 29%
    15:00 +19°C° 0 mm 6 mps 762 mmHg 32%
    16:00 +19°C° 0 mm 6 mps 763 mmHg 34%
    17:00 +16°C° 0 mm 6 mps 763 mmHg 40%
    18:00 +14°C° 0 mm 6 mps 764 mmHg 46%
    19:00 +12°C° 0 mm 5 mps 765 mmHg 52%
    20:00 +12°C° 0 mm 5 mps 765 mmHg 55%
    21:00 +10°C° 0 mm 5 mps 766 mmHg 59%
    22:00 +9°C° 0 mm 5 mps 766 mmHg 63%
    23:00 +9°C° 0.1 mm 5 mps 766 mmHg 65%
    Show more